Cancun International Airp, Mexico

7:00 AM EST on September 26, 2016 (GMT -0500)
Cancun International

Weather History for MMUN - August, 2013

Change the Weather History Date:

Friday, August 30, 2013

  Actual Average Record
Temperature  
Mean Temperature 80 °F -  
Max Temperature 87 °F 89 °F 95 °F (2005)
Min Temperature 73 °F 73 °F 69 °F (2002)
Cooling Degree Days 15    
Growing Degree Days 30 (Base 50)    
Moisture  
Dew Point 75 °F    
Average Humidity 81    
Maximum Humidity 100    
Minimum Humidity 66    
Precipitation  
Precipitation 0.00 in - - ()
Sea Level Pressure  
Sea Level Pressure 29.96 in    
Wind  
Wind Speed 4 mph ()    
Max Wind Speed 12 mph    
Max Gust Speed -    
Visibility 6.8 miles    
Events      
Averages and records for this station are not official NWS values.
T = Trace of Precipitation, MM = Missing Value Source: Averaged Metar Reports

Daily Weather History Graph

Daily Weather History Graph

Search for Another Location

Airport or City:

Trip Planner

Search our weather history database for the weather conditions in past years. The results will help you decide how hot, cold, wet, or windy it might be!

Date:

Astronomy

Aug. 30, 2013 Rise Set
Actual Time 6:30 AM CDT 7:04 PM CDT
Civil Twilight 6:08 AM CDT 7:27 PM CDT
Nautical Twilight 5:41 AM CDT 7:53 PM CDT
Astronomical Twilight 5:15 AM CDT 8:20 PM CDT
Moon 1:31 AM CDT (8/30) 2:58 PM CDT (8/30)
Length of Visible Light 13h 19m
Length of Day
12h 34m
Waning Crescent, 29% of the Moon is Illuminated
Aug 30
Waning Crescent
Sep 5
New
Sep 12
First Quarter
Sep 19
Full
Sep 26
Last Quarter

Hourly Weather History & Observations

Time (CDT) Temp. Heat Index Dew Point Humidity Pressure Visibility Wind Dir Wind Speed Gust Speed Precip Events Conditions
12:40 AM 80.6 °F 86.2 °F 75.2 °F 84% 29.98 in 6.0 mi ESE 3.5 mph - N/A   Mostly Cloudy
1:43 AM 80.6 °F 86.2 °F 75.2 °F 84% 29.97 in 6.0 mi ESE 3.5 mph - N/A   Mostly Cloudy
2:42 AM 77.0 °F - 75.2 °F 94% 29.97 in 6.0 mi Calm Calm - N/A   Scattered Clouds
3:48 AM 75.2 °F - 73.4 °F 94% 29.99 in 6.0 mi Calm Calm - N/A   Mostly Cloudy
4:42 AM 75.2 °F - 73.4 °F 94% 29.97 in 6.0 mi West 3.5 mph - N/A   Mostly Cloudy
5:43 AM 73.4 °F - 73.4 °F 100% 29.96 in 6.0 mi Calm Calm - N/A   Mostly Cloudy
6:46 AM 73.4 °F - 71.6 °F 94% 29.96 in 7.0 mi North 2.3 mph - N/A   Mostly Cloudy
7:41 AM 75.2 °F - 73.4 °F 94% 29.97 in 7.0 mi Calm Calm - N/A   Scattered Clouds
8:43 AM 80.6 °F 86.2 °F 75.2 °F 84% 29.98 in 7.0 mi North 2.3 mph - N/A   Partly Cloudy
9:41 AM 84.2 °F 92.3 °F 75.2 °F 74% 29.98 in 7.0 mi ENE 4.6 mph - N/A   Partly Cloudy
10:42 AM 86.0 °F 95.1 °F 75.2 °F 70% 29.98 in 7.0 mi East 8.1 mph - N/A   Scattered Clouds
11:40 AM 86.0 °F 93.4 °F 73.4 °F 66% 29.98 in 7.0 mi NNE 5.8 mph - N/A   Scattered Clouds
12:42 PM 87.8 °F 97.6 °F 75.2 °F 66% 29.98 in 7.0 mi ENE 8.1 mph - N/A   Mostly Cloudy
1:41 PM 87.8 °F 97.6 °F 75.2 °F 66% 29.96 in 7.0 mi NE 9.2 mph - N/A   Mostly Cloudy
2:44 PM 87.8 °F 99.7 °F 77.0 °F 70% 29.94 in 7.0 mi NE 10.4 mph - N/A   Mostly Cloudy
3:42 PM 86.0 °F 95.1 °F 75.2 °F 70% 29.93 in 7.0 mi ENE 9.2 mph - N/A   Mostly Cloudy
4:40 PM 86.0 °F 95.1 °F 75.2 °F 70% 29.91 in 7.0 mi ENE 11.5 mph - N/A   Mostly Cloudy
5:46 PM 84.2 °F 94.1 °F 77.0 °F 79% 29.93 in 7.0 mi ENE 8.1 mph - N/A   Mostly Cloudy
6:45 PM 82.4 °F 89.5 °F 75.2 °F 79% 29.93 in 7.0 mi East 8.1 mph - N/A   Mostly Cloudy
7:41 PM 82.4 °F 89.5 °F 75.2 °F 79% 29.93 in 7.0 mi East 5.8 mph - N/A   Scattered Clouds
8:42 PM 82.4 °F 89.5 °F 75.2 °F 79% 29.96 in 7.0 mi East 4.6 mph - N/A   Partly Cloudy
9:49 PM 80.6 °F 86.2 °F 75.2 °F 84% 29.95 in 7.0 mi East 3.5 mph - N/A   Scattered Clouds
10:44 PM 80.6 °F 86.2 °F 75.2 °F 84% 29.96 in 7.0 mi Calm Calm - N/A   Scattered Clouds
11:44 PM 78.8 °F - 75.2 °F 89% 29.96 in 7.0 mi Calm Calm - N/A   Scattered Clouds